Lapse_Rate
5.9 6.5 6.5 6.5 6.5 6.5 6.5 6.5 6.5 6.5 6.5 6.5 6.5 6.5 6.5 5.6 5.9 5.6 4.5 4.4 4.9 4.2 4.4 2.7 1.1 0.5 -0.1 -0.7 -0.2 -0.0 -0.3 -0.9 -0.8 -1.0 -1.2 -2.0 -2.9 -2.7 -2.9 -2.0 -1.9 -2.1 -2.3 -2.5
6.5 6.5 6.5 6.5 6.5 6.5 6.5 6.5 6.5 6.5 6.5 6.5 6.5 6.5 6.5 6.5 6.3 6.0 5.7 5.2 4.3 5.0 3.2 2.3 1.5 0.8 0.5 0.3 0.5 0.1 0.7 -0.7 0.2 -0.2 -2.8 -2.3 -2.0 -2.1 -2.2 -2.2 -2.2 -2.0 -2.1 -2.3
6.5 6.5 6.5 6.5 6.5 6.5 6.5 6.5 6.5 6.5 6.5 6.5 6.5 6.5 6.5 6.5 6.0 5.7 6.1 5.5 5.0 4.5 2.7 2.3 1.5 0.9 0.8 1.2 0.6 0.6 0.5 0.2 -0.4 -0.6 -1.7 -1.0 -1.7 -1.9 -2.2 -2.6 -2.8 -2.4 -2.0 -2.2
6.5 6.5 6.5 6.5 6.5 6.5 6.5 6.5 6.5 6.5 6.5 6.5 6.5 6.5 6.5 6.5 6.5 6.5 6.0 5.8 4.6 3.9 4.3 2.2 1.4 1.1 1.0 1.6 1.4 1.1 0.5 0.3 -0.3 -0.5 -0.4 -0.1 -1.5 -0.8 -1.9 -2.3 -3.0 -3.1 -2.1 -2.0
6.5 6.5 6.5 6.5 6.5 6.5 6.5 6.5 6.5 6.5 6.5 6.5 6.5 6.5 6.5 6.5 6.5 6.5 6.5 5.5 5.1 3.6 3.5 2.7 1.1 0.8 1.2 1.2 0.3 -0.1 0.3 0.7 0.6 0.2 0.8 -0.2 -0.2 -1.4 -1.8 -2.1 -2.5 -2.7 -2.2 -1.7
6.5 6.4 6.5 6.5 6.5 6.5 6.5 6.5 6.5 6.5 6.5 6.5 6.5 6.5 6.5 6.5 6.5 6.5 6.5 5.4 4.8 4.3 3.9 4.4 2.9 1.8 0.8 0.8 0.1 -0.6 0.2 0.8 0.6 0.5 0.2 0.7 0.1 -0.7 -1.1 -1.6 -1.7 -1.8 -2.1 -2.2
6.5 6.5 6.5 6.4 6.5 6.5 6.5 6.5 6.5 6.5 6.5 6.5 6.5 6.5 6.5 6.5 6.5 6.5 6.5 4.4 3.1 4.3 4.4 4.1 2.8 2.0 1.4 0.2 0.1 0.2 1.2 0.8 0.6 0.7 0.9 0.8 0.4 0.2 -0.7 -1.2 -1.4 -1.7 -2.1 -2.1
6.5 6.5 6.5 6.5 6.5 6.5 6.5 6.5 6.5 6.5 6.5 6.5 6.5 6.5 6.5 6.5 6.2 4.8 4.3 3.9 3.4 2.8 3.4 3.4 2.5 2.1 1.9 1.4 0.5 1.2 1.4 0.9 0.6 1.1 0.9 0.4 0.7 0.5 0.1 -0.3 -0.8 -0.6 -1.1 -1.3
6.5 6.5 6.5 6.5 6.5 6.5 6.5 6.5 6.5 6.5 6.5 6.5 6.5 6.5 6.5 6.5 6.5 6.5 6.0 5.7 4.2 2.7 2.4 2.9 4.0 3.4 3.2 2.4 1.1 2.0 2.1 1.6 1.1 0.9 0.3 0.4 0.6 0.4 0.3 -0.1 0.2 -0.4 -0.7 -0.5
6.5 6.5 6.5 6.5 6.4 6.5 6.5 6.5 6.5 6.5 6.5 6.5 6.5 6.5 6.5 6.5 6.5 6.5 6.5 6.2 5.7 3.9 3.5 3.4 3.3 3.4 3.8 3.2 2.1 2.1 2.1 1.3 1.3 0.9 0.9 0.7 0.4 0.8 0.5 0.4 -0.0 -0.2 0.1 0.3
6.5 6.5 6.5 6.5 6.5 6.5 6.5 6.5 6.5 6.5 6.5 6.5 6.5 6.5 6.5 6.5 6.5 6.5 6.5 6.0 4.1 2.8 3.4 2.9 3.0 4.4 4.3 4.7 3.0 2.4 2.4 1.8 1.4 1.1 1.3 0.7 0.8 0.7 0.6 0.8 0.6 0.6 0.5 0.1
6.5 6.5 6.5 6.5 6.5 6.5 6.5 6.5 6.5 6.5 6.5 6.5 6.5 6.5 6.5 6.5 6.5 6.2 6.1 5.7 4.0 3.4 3.0 2.3 2.8 3.4 4.6 4.8 3.6 2.8 2.3 1.9 1.3 1.3 0.5 0.9 0.5 0.9 0.9 0.7 0.4 0.3 0.7 0.9
6.5 6.5 6.5 6.5 6.5 6.5 6.5 6.5 6.5 6.5 6.5 6.5 6.5 6.5 6.5 6.5 6.5 6.2 5.5 4.3 4.5 4.4 3.6 2.2 2.4 3.4 3.4 4.4 4.0 3.7 2.3 1.8 1.7 1.3 0.8 0.5 0.9 0.5 0.2 0.8 0.8 1.2 1.5 1.7
6.5 6.5 6.5 6.5 6.5 6.5 6.5 6.5 6.5 6.5 6.5 6.5 6.5 6.5 6.5 6.5 6.5 6.4 6.2 5.7 5.4 5.3 3.1 2.2 2.0 2.3 2.6 3.6 3.6 3.6 2.4 2.4 2.1 1.7 2.1 1.4 1.1 0.6 0.5 1.4 1.7 1.9 2.1 2.5
6.5 6.5 6.5 6.5 6.5 6.5 6.5 6.5 6.5 6.5 6.5 6.5 6.5 6.5 6.5 6.5 6.5 6.3 6.2 6.4 6.6 5.7 3.3 2.3 2.0 1.7 2.1 2.8 3.7 3.9 2.9 2.0 1.8 1.7 1.7 1.8 1.9 0.8 1.4 2.1 2.8 2.7 3.1 3.3
6.5 6.5 6.5 6.5 6.5 6.5 6.5 6.5 6.5 6.5 6.5 6.5 6.5 6.5 6.5 6.4 6.3 6.2 6.3 6.5 6.4 6.2 6.0 3.4 2.6 2.7 2.4 2.5 3.6 4.2 3.0 2.1 2.1 2.3 2.5 2.6 2.6 2.3 3.1 3.5 3.4 3.6 3.0 2.9
6.5 6.5 6.5 6.5 6.5 6.5 6.5 6.5 6.5 6.5 6.5 6.5 6.5 6.5 6.5 6.5 6.5 6.3 6.2 6.2 6.3 6.0 6.5 6.1 2.7 1.9 2.3 3.2 3.6 3.6 3.8 4.1 3.1 2.7 2.6 2.6 3.5 3.5 3.9 4.1 4.5 4.6 3.6 3.4
6.5 6.5 6.5 6.5 6.5 6.5 6.5 6.5 6.5 6.5 6.5 6.5 6.5 6.5 6.5 6.4 6.3 5.9 5.8 6.2 6.5 6.9 6.0 4.3 2.9 2.0 1.8 3.9 4.3 4.2 4.1 4.3 3.8 3.5 2.9 3.5 3.7 4.0 4.5 3.5 4.2 3.2 3.9 3.6
6.5 6.5 6.5 6.5 6.5 6.5 6.5 6.5 6.5 6.5 6.5 6.5 6.5 6.5 6.4 5.9 6.0 4.8 4.7 5.9 5.3 6.1 6.0 5.3 3.5 1.3 2.1 3.6 4.4 4.3 3.9 4.3 4.0 3.5 3.1 3.6 3.6 3.4 2.7 3.0 4.6 4.4 3.9 4.0
6.5 6.5 6.5 6.5 6.5 6.5 6.5 6.5 6.1 6.5 6.5 6.5 6.5 6.5 6.5 5.9 6.5 6.5 4.1 4.4 2.2 2.6 3.4 3.2 2.2 0.6 1.5 4.2 4.2 3.9 4.3 4.5 4.7 3.1 2.6 3.0 3.2 2.0 2.8 3.9 4.1 4.6 4.3 4.1
6.5 6.5 6.5 6.5 6.5 6.5 6.5 6.5 6.3 6.5 6.5 6.3 5.8 5.5 5.5 6.5 5.7 3.9 3.7 3.0 3.1 2.2 1.9 1.4 -0.6 1.2 3.3 4.1 4.0 4.0 5.1 4.3 3.4 3.3 3.7 2.7 1.6 2.6 4.1 4.4 4.3 3.8 3.9 4.1
6.5 6.5 6.5 6.5 6.5 6.5 6.1 6.4 6.5 6.3 5.6 4.7 5.3 5.2 4.7 4.0 4.6 4.9 4.0 2.0 1.1 1.3 2.2 2.2 2.6 2.7 4.1 4.5 4.3 3.7 4.3 3.1 3.2 3.2 2.4 1.5 2.3 3.9 4.9 4.2 3.3 4.0 3.1 3.0
6.5 6.5 6.5 6.5 6.5 6.2 5.2 5.5 5.4 5.3 6.0 5.4 5.8 6.0 4.4 4.0 4.9 4.8 4.0 2.7 3.1 3.4 3.2 3.0 2.9 3.7 4.6 5.0 4.5 3.2 2.7 3.4 3.2 2.0 1.7 2.1 3.2 5.0 4.6 3.4 2.8 2.9 3.1 3.2
6.5 6.3 6.5 6.5 6.5 6.5 6.4 6.5 5.6 5.3 5.5 4.5 4.9 5.5 5.1 4.4 4.3 3.3 2.7 1.5 2.3 2.7 2.7 3.7 3.5 3.8 4.6 5.6 4.3 2.2 2.6 3.0 1.6 1.2 1.9 2.2 3.3 3.5 3.3 3.3 3.1 1.9 1.4 1.9
6.4 6.5 6.5 6.5 6.5 6.4 6.3 5.8 5.4 4.7 4.0 4.3 4.1 4.1 4.5 4.1 4.0 3.2 1.8 1.6 1.8 2.6 3.1 4.2 3.5 2.4 3.2 3.4 2.9 2.6 2.0 1.1 1.0 0.9 1.1 2.2 2.7 1.3 1.1 1.3 1.5 1.9 -0.8 2.7
6.5 6.5 6.5 6.5 6.3 6.1 6.1 4.4 4.5 4.3 4.0 4.1 4.9 4.6 3.5 4.0 4.0 1.9 2.1 1.7 2.2 2.5 2.4 3.1 3.0 3.1 3.6 3.4 2.4 1.5 1.1 1.1 1.0 0.8 1.8 1.6 0.2 0.2 0.3 0.6 0.0 4.7 3.5 4.8
Wind_Speed
2 4 9 10 9 5 2 3 6 11 14 4 8 9 13 7 10 7 9 10 13 18 11 10 11 12 11 9 10 12 12 11 11 8 6 5 4 3 3 9 14 15 15 15
0 8 10 8 6 7 8 7 11 9 12 5 10 11 11 6 10 18 18 16 18 13 9 11 12 13 15 15 14 13 13 13 11 8 4 4 4 3 3 8 11 15 16 14
12 7 9 11 5 6 8 7 7 9 11 5 8 9 7 6 5 9 14 14 13 18 17 16 17 17 15 16 15 14 14 14 11 10 7 6 4 4 3 3 4 7 14 13
8 9 12 8 6 8 8 7 9 6 5 5 3 10 11 5 8 8 16 15 18 19 17 17 19 18 19 15 14 14 14 14 11 13 9 14 6 7 4 4 4 5 12 11
9 6 8 14 17 11 7 4 4 4 6 6 5 5 5 4 7 11 13 14 17 20 21 22 24 23 19 16 14 13 13 13 13 12 13 10 9 4 6 6 8 6 7 10
14 1 2 5 2 5 2 4 5 3 2 12 8 8 10 10 12 5 7 13 17 18 19 18 15 17 17 15 14 14 15 14 14 13 12 14 13 11 9 8 7 5 4 4
2 15 14 9 12 15 4 3 4 4 2 11 6 9 11 7 7 10 11 9 14 14 14 16 18 19 19 20 17 15 17 14 14 14 13 13 14 14 14 12 8 9 6 3
1 1 3 6 9 5 8 11 9 10 6 9 3 7 5 1 5 3 6 6 6 9 15 19 22 21 21 21 19 19 18 16 14 14 13 11 14 9 9 10 8 6 5 5
5 3 4 8 3 2 2 5 14 10 14 8 5 11 12 12 10 11 13 10 10 9 14 17 14 17 17 18 19 19 18 16 14 14 12 12 11 12 10 11 9 7 8 7
4 5 4 3 4 2 4 6 2 2 3 5 4 5 4 12 14 16 20 20 18 10 7 9 13 15 14 17 16 17 18 18 16 14 12 11 11 11 11 10 10 11 9 9
4 3 6 8 3 7 6 4 4 3 3 2 3 4 4 7 4 7 9 11 12 10 7 2 5 9 12 15 16 16 16 17 15 15 13 12 11 11 12 11 10 10 10 9
1 3 4 5 14 10 6 2 3 3 1 3 3 7 8 5 9 7 15 9 7 6 3 4 6 9 12 14 15 17 16 16 16 15 13 14 13 12 12 11 11 11 11 10
5 1 5 7 2 7 4 4 1 1 1 6 4 6 5 21 17 17 10 8 7 6 2 5 6 9 10 13 15 16 16 17 17 16 16 15 15 15 13 12 12 11 11 9
5 2 5 7 7 5 13 15 10 8 6 10 12 23 24 11 17 20 19 7 9 8 6 6 7 10 11 12 14 14 14 14 15 14 13 14 15 14 12 11 12 11 11 10
2 4 4 7 5 8 14 15 16 15 16 10 17 10 21 20 21 16 16 16 14 11 6 11 13 13 13 13 13 13 14 14 15 16 14 13 11 12 12 11 11 10 10 10
2 4 1 8 10 9 13 19 21 15 18 19 21 20 23 25 19 16 16 13 16 12 9 12 15 15 16 17 17 15 16 17 15 14 14 11 10 12 12 11 10 9 8 8
3 2 2 9 11 3 8 19 17 18 21 17 18 22 22 20 19 17 11 15 16 10 13 13 13 17 17 18 18 18 15 13 15 15 14 14 12 12 11 10 9 8 8 8
6 5 3 9 11 6 9 10 15 18 19 19 19 21 21 21 20 9 9 13 16 18 12 11 7 12 15 14 15 15 16 15 14 13 15 14 13 12 10 9 9 7 7 9
14 4 2 3 10 12 10 10 2 4 12 16 18 19 16 14 4 11 8 10 11 16 11 10 7 7 12 15 16 17 16 16 16 16 15 15 14 12 11 10 10 8 7 7
4 7 4 2 6 12 13 5 4 3 10 11 6 11 10 6 3 10 7 7 9 8 11 11 4 9 13 14 16 17 15 16 14 15 15 15 13 12 11 11 10 8 8 9
2 3 9 10 8 6 11 19 3 5 10 3 3 5 6 6 6 8 8 10 6 6 8 4 7 9 11 14 16 16 15 13 14 14 13 12 12 11 11 10 9 9 9 9
7 5 4 2 2 9 12 9 10 7 3 5 7 9 8 10 16 10 9 5 6 4 4 7 7 10 11 13 15 14 14 15 15 14 13 12 11 9 9 12 8 10 10 9
3 7 4 6 8 8 5 7 9 12 15 10 11 13 10 9 8 12 3 1 1 3 5 6 9 11 10 11 13 15 14 14 14 14 13 11 11 9 9 10 9 8 7 7
13 16 9 17 19 21 22 20 19 19 15 7 11 12 8 9 9 8 3 4 3 4 7 7 10 10 10 10 12 13 13 14 14 13 11 10 10 10 8 6 6 6 5 5
11 5 8 14 25 16 19 16 14 11 7 7 8 8 8 8 12 7 5 5 5 5 6 7 9 9 12 13 14 13 13 14 13 12 10 9 8 8 7 5 5 5 2 6
12 22 11 17 18 12 12 9 6 7 8 9 14 12 7 8 10 4 4 5 6 8 10 9 8 9 10 10 12 12 11 12 13 11 8 7 7 5 5 6 4 6 8 8
Wind_Direction
211 151 210 189 188 219 233 248 274 272 277 288 255 254 267 225 206 202 198 196 205 214 195 174 164 161 160 162 161 160 154 157 145 141 140 130 133 126 105 113 118 110 106 102
131 228 228 191 194 218 247 255 264 281 264 177 270 262 248 183 210 207 204 203 211 204 176 172 173 176 179 172 174 169 166 161 159 153 130 126 138 125 120 121 111 116 113 110
210 217 196 199 193 215 244 234 261 245 291 244 276 274 241 240 248 221 226 216 212 202 190 182 182 184 179 183 177 172 170 167 162 148 126 110 92 89 96 104 100 104 111 111
237 219 239 229 220 183 251 212 243 270 311 272 104 290 269 242 227 216 225 208 204 202 199 186 184 186 186 183 177 176 170 170 165 156 144 154 149 153 157 148 137 121 115 113
224 172 204 228 237 230 239 257 228 250 268 303 246 261 271 227 241 240 232 218 213 207 195 192 191 186 181 173 176 174 169 171 165 163 160 154 146 136 135 129 127 121 115 113
252 109 160 192 164 158 51 326 314 258 200 262 230 223 267 230 231 244 232 223 216 211 205 203 189 176 179 172 174 170 168 172 169 166 163 160 150 144 142 147 141 140 128 118
243 250 254 251 270 276 206 90 303 297 199 260 192 242 246 221 227 222 253 224 217 208 198 193 182 183 180 178 173 170 171 171 170 166 166 159 152 155 156 156 155 152 141 139
38 69 13 335 215 210 209 215 215 240 239 276 250 241 227 257 344 267 287 304 241 199 198 196 194 186 184 178 175 173 172 167 169 167 164 154 153 156 158 159 155 150 147 145
347 267 351 66 328 307 222 175 221 247 272 274 233 274 293 292 322 347 360 357 328 261 213 206 190 189 183 179 177 170 168 165 166 163 155 156 155 154 157 151 150 146 144 144
24 307 341 340 304 286 340 335 252 134 228 237 250 248 242 31 12 12 9 358 348 323 252 192 186 181 178 174 170 171 171 167 163 159 159 157 155 150 145 146 149 149 148 141
9 318 317 358 17 327 336 317 310 333 197 263 305 262 135 92 57 5 345 345 336 336 337 89 151 167 168 172 172 170 168 166 163 157 158 154 155 147 145 150 148 150 147 150
171 213 251 258 275 287 276 282 10 229 359 298 279 251 165 52 8 350 332 335 341 326 327 129 150 158 172 177 174 174 170 167 165 160 159 156 151 154 152 151 152 155 154 157
360 263 321 318 315 60 55 64 22 336 225 242 275 274 267 338 337 324 323 315 325 308 210 156 156 172 175 180 180 180 177 173 166 163 164 160 160 160 157 157 154 154 153 154
147 256 247 251 265 315 296 296 279 256 249 274 254 280 285 312 311 307 311 314 307 307 195 190 186 188 182 185 186 181 176 171 168 166 162 165 167 158 152 152 152 153 154 158
67 249 237 266 273 279 281 281 273 265 268 263 285 273 286 290 289 285 289 302 307 298 205 204 206 194 187 186 186 183 179 170 165 164 168 167 168 148 144 148 149 146 155 164
355 265 311 278 263 248 259 264 265 267 256 260 262 270 268 278 280 281 278 293 279 286 282 224 218 205 197 191 188 184 177 174 168 166 159 151 153 143 146 143 143 146 151 144
212 189 111 274 289 263 257 246 254 254 260 258 260 259 276 283 284 278 285 262 271 278 279 276 211 209 203 197 189 184 176 166 166 160 152 149 157 145 135 133 140 154 142 146
210 205 167 268 291 206 243 234 248 256 265 272 269 267 270 273 277 291 263 282 287 281 271 257 240 215 201 190 182 166 162 163 162 158 147 147 145 134 123 132 159 132 146 152
210 190 242 216 252 273 290 269 243 275 282 271 261 263 263 272 340 291 283 277 278 286 270 263 240 182 173 173 165 160 161 159 156 152 143 140 132 133 146 161 149 140 135 139
144 208 203 300 283 277 283 241 175 146 282 256 268 266 281 320 302 277 288 274 297 295 279 276 205 151 154 161 154 151 159 154 153 144 137 131 138 149 159 156 139 138 144 140
213 215 225 242 251 267 253 264 87 244 266 264 218 226 271 270 226 267 302 314 306 319 315 349 115 132 139 144 144 141 141 145 136 130 128 133 138 152 166 139 135 139 134 126
205 186 212 213 195 268 248 269 212 237 249 249 258 270 249 249 273 285 297 314 2 33 3 48 89 107 125 138 131 134 134 136 135 131 134 137 142 156 145 135 135 133 131 128
243 189 200 188 239 241 244 221 254 281 282 279 275 270 253 256 275 291 273 64 27 98 75 77 102 107 109 121 136 130 134 133 127 127 127 133 143 134 135 136 135 127 129 133
267 263 246 264 255 259 262 268 268 272 266 268 282 273 270 276 286 285 194 154 126 98 105 114 114 112 109 113 113 123 126 124 122 120 125 139 135 128 125 126 127 128 128 131
240 292 254 273 263 267 261 254 264 265 275 281 276 264 263 277 285 250 191 166 141 126 120 119 116 121 123 126 133 134 131 127 125 126 136 132 127 123 118 101 128 131 101 160
221 249 239 253 259 244 260 266 261 275 265 294 301 289 258 236 254 185 169 160 144 133 120 115 124 132 132 131 122 121 126 131 131 130 131 129 125 121 122 117 83 137 152 176